www.pogodaiklimat.ru

Погода и климат >> Архив погоды >> Корея >> Вонджу


ПОГОДА в Вонджу

  • Прогноз погоды в Вонджу
  • Монитор погоды в Вонджу

АРХИВ ПОГОДЫ в Вонджу

Время (UTC), дата Ветер
(напр.,м/с)
 
Видим.   Явления Облачность Т
(С)
Тd
(С)
f
(%)
Тe
(С)
Тes
(С)
Комфортность P
(гПа)
Po
(гПа)
Тmin
(С)
Tmax
(С)
R
(мм)
R24
(мм)
S
(см)
09 8.09 СЗ 1 19 км 10/6
[]
+26.5 +19.6 66 +32 +32 очень
душно
1007.9 991.0
12 8.09 В 2 12 км ?/? +24.0 +21.1 84 +30 +30 очень
душно
1009.5 992.6 +27.6 0.0
15 8.09 штиль 0 8000 м 10/4
[]
+23.4 +20.9 86 +31 +31 очень
душно
1010.0 993.0
18 8.09 С 1 3700 м ?/? +22.8 +20.8 88 +30 +30 очень
душно
1010.0 992.9
21 8.09 В 1 9000 м 9// 200 м
[]
+22.1 +19.4 85 +28 +28 душно 1010.5 993.4
00 9.09 штиль 0 13 км ?/? +23.3 +19.8 81 +30 +30 очень
душно
1011.9 994.8 +22.0 0.0
03 9.09 С 1 5000 м 10/3 300 м
[]
+24.2 +20.7 81 +30 +36 очень
душно
1011.3 994.3
06 9.09 С 1 10 км ?/? +24.7 +20.8 79 +31 +31 очень
душно
1009.8 992.8
09 9.09 СВ 1 12 км 10/1
[]
+24.6 +20.9 80 +31 +31 очень
душно
1009.8 992.9
12 9.09 штиль 0 13 км 9/0
[]
+23.7 +21.0 85 +30 +30 очень
душно
1011.3 994.3 +25.3 1
15 9.09 В 1 15 км 1/1 1000 м
[]
+22.6 +20.5 88 +29 +29 очень
душно
1011.5 994.4
18 9.09 З 1 8000 м 9/9 200 м
[]
+22.4 +20.6 90 +29 +29 очень
душно
1011.6 994.5 3
21 9.09 11 км н/о +21.8 +20.2 91 +28 +28 душно 1012.6 995.4
00 10.09 штиль 0 20 км 9/9 200 м
[]
+23.5 +20.8 85 +29 +30 душно 1013.3 996.2 +21.7 5
03 10.09 Ю 2 20 км 8/3 1000 м
[]
+28.9 +19.8 58 +35 +42 очень
душно
1012.1 995.3
06 10.09 Ю 1 20 км 8/8 1500 м
[]
+30.1 +17.2 46 +34 +39 очень
душно
1010.0 993.3
09 10.09 СВ 1 19 км 9/6
[]
+27.3 +20.8 68 +34 +34 очень
душно
1010.3 993.5
12 10.09 СЗ 3 19 км 8/8 1000 м
[]
+26.1 +21.9 78 +34 +34 очень
душно
1012.1 995.1 +31.0 0.0
15 10.09 С 2 2200 м 10/9 600 м
[]
+23.1 +21.3 90 +31 +31 очень
душно
1012.5 995.4
18 10.09 штиль 0 2000 м ?/? +21.9 +20.5 92 +28 +28 душно 1012.0 994.8 52
21 10.09 3600 м н/о +21.4 +20.0 92 +27 +27 душно 1013.1 995.8
00 11.09 С 4 2300 м 6/6 100 м
[]
+20.7 +19.1 91 +25 +27 комфорт 1015.5 998.1 +20.6 71
03 11.09 20 км 9// 1000 м
[]
+23.9 +19.4 76 1015.3 998.2
06 11.09 СВ 1 20 км 9/9 600 м
[]
+26.5 +18.3 61 +31 +32 душно 1014.0 997.0
09 11.09 20 км н/о +25.1 +18.0 65 +29 +30 душно 1014.8 997.7
12 11.09 С 4 20 км ?/? +23.3 +16.5 66 +28 +28 душно 1016.7 999.6 +26.6 0.3
15 11.09 С 2 20 км 8/0
[]
+22.4 +15.9 67 +27 +27 душно 1017.1 999.9
18 11.09 С 1 20 км ?/? +21.4 +15.6 70 +25 +25 комфорт 1016.9 999.6
21 11.09 штиль 0 20 км 10/1 1500 м
[]
+20.8 +15.3 71 +24 +24 комфорт 1017.6 1000.2
00 12.09 С 3 20 км ?/? +21.0 +13.4 62 +24 +24 комфорт 1018.4 1001.0 +20.6 0.0
03 12.09 ЮВ 1 20 км 10/0
[]
+21.2 +11.2 53 +23 +32 комфорт 1018.1 1000.7
06 12.09 ЮВ 2 20 км ?/? +21.5 +11.2 52 +23 +26 комфорт 1016.4 999.1
09 12.09 ЮВ 1 20 км 10/9 2000 м
[]
+21.1 +12.2 57 +23 +23 комфорт 1016.3 999.0
12 12.09 С 2 20 км 8/0
[]
+19.9 +14.6 72 +23 +23 комфорт 1017.3 999.8 +22.4 0.0
15 12.09 штиль 0 20 км 6/5
[]
+18.8 +13.4 71 +20 +20 1016.5 999.1
18 12.09 штиль 0 20 км 8/0
[]
+16.7 +13.9 84 +17 +17 1016.3 998.7
21 12.09 СВ 1 20 км 3/0
[]
+15.9 +13.5 86 +17 +17 1016.3 998.6
00 13.09 СВ 2 20 км ясно +19.7 +12.4 63 +22 +28 комфорт 1015.9 998.4 +15.8 0.0
03 13.09 В 1 20 км 3/0
[]
+25.2 +12.7 46 +27 +42 жарко 1013.9 996.8
06 13.09 СЗ 1 20 км ясно +27.2 +11.2 37 +28 +39 жарко 1011.2 994.3
09 13.09 СЗ 2 20 км ясно +26.0 +13.4 46 +28 +28 жарко 1012.0 995.0
12 13.09 В 1 20 км 5/0
[]
+21.2 +15.2 69 +24 +24 комфорт 1013.3 996.0 +27.9
15 13.09 штиль 0 20 км 3/0
[]
+19.9 +16.3 80 +22 +22 комфорт 1013.0 995.6
18 13.09 штиль 0 20 км 9/0
[]
+18.8 +15.8 83 +20 +20 1012.4 995.1
21 13.09 штиль 0 20 км 10/10
[]
+19.0 +15.8 82 +20 +20 1012.7 995.4
00 14.09 штиль 0 20 км ?/? +20.3 +15.5 74 +23 +23 комфорт 1012.9 995.5 +18.5 0.0
03 14.09 С 1 20 км 10/4 1000 м
[]
+24.0 +15.4 59 +27 +32 жарко 1011.4 994.4
06 14.09 З 1 20 км ?/? +24.0 +17.0 65 +28 +28 душно 1010.1 993.1
09 14.09 19 км н/о +22.0 +18.1 79 +27 +27 душно 1010.6 993.4
12 14.09 штиль 0 10 км 9/9 300 м
[]
+21.2 +18.5 85 +26 +26 душно 1012.5 995.2 +25.0 0.2
15 14.09 штиль 0 7000 м 9// 300 м
[]
+20.8 +18.5 87 +25 +25 комфорт 1011.8 994.5
18 14.09 штиль 0 6000 м 5/5 200 м
[]
+20.4 +18.5 89 +24 +24 комфорт 1011.2 993.9
21 14.09 7000 м н/о +20.3 +18.2 88 +25 +25 комфорт 1011.8 994.5
00 15.09 16 км 6/6 300 м
[]
+21.9 +17.8 78 +27 +29 душно 1012.5 995.3 +19.9 0.0
03 15.09 В 1 19 км 6/0
[]
+26.5 +17.2 57 +31 +42 душно 1010.2 993.3

 

Местоположение метеостанции Вонджу (Корея): широта 37.33 долгота 127.95 высота над уровнем моря 151 м.

В архиве по умолчанию представлена погода в Вонджу за последнюю неделю. Архивные данные за месяц целиком и за предыдущие месяцы, начиная с января 2011 года, Вы можете получить, выбрав интересующий диапазон дат из раскрывающегося списка и нажав кнопку "Ввод!".


*Определитесь, кто Вы:
робот инопланетянин человек

Внимание! Время в таблицах - всемирное. Для получения местного времени необходимо прибавить поправку, которая равна 9 ч.

Смотрите также архив погоды в соседних городах и на ближайших метеорологических станциях:

Погода в Ичхоне (Корея) (42 км)
Погода в Йонволе (Корея) (48 км)
Погода в Чунчоне (Корея) (65 км)
Погода в Чхунчхоне (Корея) (66 км)
Погода в Букчунчеоне (Корея) (81 км)
Погода на Перевале Daegwallyeong (Корея) (81 км)
Погода в Сувоне (Корея) (86 км)
Погода в Чхонджу (Корея) (90 км)
Погода в Сеуле (Корея) (91 км)
Погода на Базе Camp Humphreys (Корея) (92 км)

Пояснения к столбцам:

Ветер - указаны скорость ветра в м/с - средняя за 10 мин, порывы в срок и между сроками (в фигурных скобках) и направление, откуда дует ветер: С - северный, СВ - северо-восточный, В - восточный, ЮВ - юго-восточный, Ю - южный, ЮЗ - юго-западный, З - западный, СЗ - северо-западный.
Видимость - горизонтальная дальность видимости в метрах или километрах. При видимости от 1 до 10 км при отсутствии осадков обычно наблюдается дымка, при ухудшении видимости до 1 км и менее - туман. В сухую погоду видимость может ухудшаться дымом, пылью или мглою.
Явления - указаны атмосферные явления, наблюдавшиеся в срок или в последний час перед сроком; фигурными скобками обозначены явления, наблюдавшиеся между сроками (за 1-3 часа до срока); квадратными скобками обозначены град или гололедные отложения с указанием их диаметра в мм.
Облачность - указаны через наклонную черту общая и нижняя облачность в баллах и высота нижней границы облаков в метрах; квадратными скобками обозначены формы облаков: Ci - перистые, Cs - перисто-слоистые, Cc - перисто-кучевые, Ac - высококучевые, As - высокослоистые, Sc - слоисто-кучевые, Ns - слоисто-дождевые, Cu - кучевые, Cb - кучево-дождевые. Подробнее классификацию облаков см. в Атласе облаков (PDF).
T - Температура воздуха - температура, измеренная на высоте 2 м над землей.
Td - Температура точки росы - температура, при понижении до которой содержащийся в воздухе водяной пар достигнет насыщения.
f - Относительная влажность воздуха - влажноcть воздуха, измеренная на высоте 2 м над землей.
Te - Эффективная температура - температура, которую ощущает одетый по сезону человек в тени. Характеристика душности погоды. При расчете учитывается влияние влажности воздуха и скорости ветра на теплоощущения человека.
Tes - Эффективная температура на солнце - температура, которую ощущает человек, с поправкой на солнечный нагрев. Характеристика знойности погоды. Зависит от высоты солнца над горизонтом, облачности и скорости ветра. Ночью, в пасмурную погоду, а также при ветре 12 м/с и более поправка равна нулю.
P - Атмосферное давление - приведенное к уровню моря атмосферное давление.
Po - Атмосферное давление - измеренное на уровне метеостанции атмосферное давление.
Tmin - Минимальная температура - минимум температуры воздуха на высоте 2 м над землей.
Tmax - Максимальная температура - максимум температуры воздуха на высоте 2 м над землей.
R - Количество осадков - Количество выпавших осадков за период времени, мм. При наведении курсора мыши на число - период времени, за который выпало указанное количество осадков.
R24 - Количество осадков - Количество выпавших осадков за 24 часа, мм.
S - Снежный покров - Высота снежного покрова, см. При наведении курсора мыши на число - состояние снежного покрова и степень покрытия местности в баллах.